Rockport, TX

3:50 PM CST on December 16, 2017 (GMT -0600)
Aransas County

Weather History for KRKP - May, 2013

Change the Weather History Date:

Friday, May 3, 2013

  Actual Average Record
Temperature  
Mean Temperature 62 °F -  
Max Temperature 72 °F 80 °F 89 °F (2006)
Min Temperature 52 °F 67 °F 50 °F (2004)
Degree Days  
Heating Degree Days 4    
Growing Degree Days 12 (Base 50)    
Moisture  
Dew Point 32 °F    
Average Humidity 38    
Maximum Humidity 62    
Minimum Humidity 19    
Precipitation  
Precipitation 0.00 in - - ()
Sea Level Pressure  
Sea Level Pressure 30.21 in    
Wind  
Wind Speed 21 mph (NNW)    
Max Wind Speed 31 mph    
Max Gust Speed 41 mph    
Visibility 10 miles    
Events      
Averages and records for this station are not official NWS values.
T = Trace of Precipitation, MM = Missing Value Source: NWS Daily Summary

Daily Weather History Graph

Daily Weather History Graph

Search for Another Location

Airport or City:

Trip Planner

Search our weather history database for the weather conditions in past years. The results will help you decide how hot, cold, wet, or windy it might be!

Date:

Astronomy

May. 03, 2013 Rise Set
Actual Time 6:46 AM CDT 8:04 PM CDT
Civil Twilight 6:21 AM CDT 8:29 PM CDT
Nautical Twilight 5:51 AM CDT 8:58 PM CDT
Astronomical Twilight 5:21 AM CDT 9:29 PM CDT
Moon 2:39 AM CDT (5/3) 2:29 PM CDT (5/3)
Length of Visible Light 14h 07m
Length of Day
13h 17m
Last Quarter, 37% of the Moon is Illuminated
May 3
Last Quarter
May 9
New
May 17
First Quarter
May 24
Full
May 31
Last Quarter

Hourly Weather History & Observations

Time (CDT) Temp. Dew Point Humidity Pressure Visibility Wind Dir Wind Speed Gust Speed Precip Events Conditions
12:53 AM 54.0 °F 41.0 °F 62% 30.27 in 10.0 mi North 21.9 mph 36.8 mph N/A   Overcast
1:53 AM 54.0 °F 39.0 °F 57% 30.25 in 10.0 mi NNW 31.1 mph 41.4 mph N/A   Overcast
2:53 AM 55.0 °F 37.9 °F 53% 30.23 in 10.0 mi NNW 28.8 mph 38.0 mph N/A   Overcast
3:53 AM 55.0 °F 36.0 °F 49% 30.24 in 10.0 mi NNW 27.6 mph 36.8 mph N/A   Overcast
4:53 AM 54.0 °F 34.0 °F 47% 30.24 in 10.0 mi NNW 25.3 mph 41.4 mph N/A   Overcast
5:53 AM 53.1 °F 32.0 °F 45% 30.26 in 10.0 mi NNW 27.6 mph 38.0 mph N/A   Partly Cloudy
6:53 AM 52.0 °F 32.0 °F 47% 30.27 in 10.0 mi NNW 26.5 mph 33.4 mph N/A   Clear
7:53 AM 52.0 °F 32.0 °F 47% 30.28 in 10.0 mi NNW 23.0 mph 31.1 mph N/A   Clear
8:53 AM 54.0 °F 30.9 °F 41% 30.29 in 10.0 mi NNW 27.6 mph 38.0 mph N/A   Clear
9:53 AM 57.0 °F 28.9 °F 34% 30.30 in 10.0 mi NNW 26.5 mph 36.8 mph N/A   Clear
10:53 AM 61.0 °F 28.9 °F 30% 30.30 in 10.0 mi NNW 25.3 mph 32.2 mph N/A   Clear
11:53 AM 64.9 °F 30.9 °F 28% 30.29 in 10.0 mi North 18.4 mph 29.9 mph N/A   Clear
12:53 PM 66.0 °F 28.9 °F 25% 30.26 in 10.0 mi NNW 21.9 mph 28.8 mph N/A   Clear
1:53 PM 69.1 °F 27.0 °F 21% 30.23 in 10.0 mi NNW 21.9 mph - N/A   Clear
2:53 PM 71.1 °F 28.0 °F 20% 30.19 in 10.0 mi NNW 16.1 mph - N/A   Clear
3:53 PM 71.1 °F 27.0 °F 19% 30.16 in 10.0 mi NNW 18.4 mph - N/A   Clear
4:53 PM 71.1 °F 26.1 °F 19% 30.12 in 10.0 mi North 11.5 mph - N/A   Clear
5:53 PM 71.1 °F 28.0 °F 20% 30.11 in 10.0 mi North 10.4 mph - N/A   Clear
6:53 PM 70.0 °F 28.9 °F 22% 30.09 in 10.0 mi North 10.4 mph - N/A   Clear
7:53 PM 66.0 °F 32.0 °F 28% 30.10 in 10.0 mi North 8.1 mph - N/A   Clear
8:53 PM 57.9 °F 35.1 °F 42% 30.13 in 10.0 mi Calm Calm - N/A   Clear
9:53 PM 55.9 °F 36.0 °F 47% 30.13 in 10.0 mi Calm Calm - N/A   Clear
10:53 PM 55.0 °F 37.0 °F 51% 30.13 in 10.0 mi ENE 3.5 mph - N/A   Clear
11:53 PM 55.0 °F 41.0 °F 59% 30.12 in 10.0 mi ENE 4.6 mph - N/A   Clear